Tracking 18840 objects as of 18-November-2017
HD Live streaming from Space Station
objects crossing your sky now

COSMOS 312

Track COSMOS 312 now!
10-day predictions
COSMOS 312 is classified as:


NORAD ID: 4254
Int'l Code: 1969-103A
Perigee: 1,147.2 km
Apogee: 1,182.4 km
Inclination: 74.0 °
Period: 108.5 minutes
Semi major axis: 7535 km
RCS: 3.057 m2 (large)
Launch date: November 24, 1969
Source: Commonwealth of Independent States (former USSR) (CIS)
Launch site: PLESETSK MISSILE AND SPACE COMPLEX (PKMTR)
aabbcc
Your satellite tracking list
Your tracking list is empty




NASA's NSSDC Master Catalog

Two Line Element Set (TLE):
1 04254U 69103A   17322.15292656  .00000031  00000-0  11424-3 0  9994
2 04254  74.0200 185.6636 0023330 325.3438 168.9422 13.27115643324424
Source of the keplerian elements: AFSPC